DELTA 1 DEB, 5971

Orbit data source: Space-Track

DELTA 1 DEB, 5971 is space debris in SSO originally from a launch on Thu, 26 Jan 1967 UTC launched from the Air Force Western Test Range (AFWTR). Debris objects in space refer to the collection of defunct objects orbiting the Earth. Examples of debris include non-operational satellites, rocket bodies, and fragments generated from explosions, collisions, or faulty payload assembly.

Loading next visibility...
Identifier
5971, 1967-006E
Orbit
SSO
Last TLE update
2 days ago
Origin
Manufacturer
Unknown
Mission
Spacecraft
Bus & Motor
Unknown
Mass
Unknown
Launch date (UTC)
1967-01-26 (58 years ago)
Launch vehicle
Unknown
Launch site
Air Force Western Test Range (AFWTR)
Object type
Payload
Rocket body
Debris
Shape & HBR
Unknown
Radar Cross Section
Small (<0.1 m²)

Expand to show TLE details & history

TLE from 2 days ago
0 DELTA 1 DEB
1 05971U 67006E   25118.71658010 -.00000007  00000-0  19064-3 0  9997
2 05971 101.9224  40.1925 0113267  73.3118 304.1032 12.73465857708339
Epoch: 2025-04-28T17:11Z
Definitive object data (Epoch: 2025-04-28T17:11:52.52Z)
Latitude
15.95423°
Longitude
-78.14617°
Altitude
1,321.286 km
Speed
7.22 km/s
True Right ascension
02h 26m 59s
True Declination
15° 52' 13"
Sunlit
Object was in daylight at TLE epoch
Visualization TLE readout
Latitude
26.48967°
Longitude
-78.33682°
Altitude
1,304.846 km
Speed
7.237 km/s
Apparent Right ascension
23h 47m 22s
Apparent Declination
-5° 04' 08"
Sunlit
Object is in daylight
Visualization observer readout
Local Sidereal Time
07:32:04
Azimuth
283.473° WNW
Elevation
-23.185°
Doppler factor
1
Orbital elements
Apogee altitude
1,453.088 km
Perigee altitude
1,277.671 km
Semi-major axis
7,743.517 km
Eccentricity
0.0113267
Inclination
101.9224°
RAAN
40.1925°
Arg. of periapsis
73.3118°
True anomaly
303.01993°
Mean anomaly
304.1032°
Eccentric anomaly
303.56242°
Mean motion
3.18519 °/min
BSTAR
0.00019064
Orbital period
113.02 mins
Loading maneuver chart data...
Loading SW <> Apogee altitude chart data...
Loading historical data...
Loading historical data...
Loading historical data...
Loading historical data...
Loading historical data...
Loading historical data...
Loading historical data...
Other satellites on launch #6 in the year 1967 (1967-01-26 UTC)

DELTA 1 DEB Visibility forecast

Observer location: undefined°, undefined°

Span
Click to sort rows by Start time (UTC) header in descending order
Start Az.
Max El. time (UTC)
Max El. Az.
Max El.
End time (UTC)
End Az.
9 mins2025-05-01 06:06:50.647Z57.506° ENE2025-05-01 06:10:50.647Z92.005° ESE17.944°2025-05-01 06:15:50.647Z133.452° SE
13 mins2025-05-01 07:56:50.647Z14.836° NNE2025-05-01 08:02:50.647Z273.68° WNW44.661°2025-05-01 08:09:50.647Z204.534° SW
7 mins2025-05-01 09:49:50.647Z333.786° NNW2025-05-01 09:52:50.647Z306.899° NW16.811°2025-05-01 09:56:50.647Z274.029° WNW
9 mins2025-05-01 16:56:50.647Z94.128° ESE2025-05-01 17:00:50.647Z53.894° ENE22.435°2025-05-01 17:05:50.647Z8.587° NNE
13 mins2025-05-01 18:44:50.647Z171.679° S2025-05-01 18:50:50.647Z240.853° WSW43.353°2025-05-01 18:57:50.647Z337.279° NNW
|